Regional Weather Roundup
Issued by NWS Green Bay, WI

Home | Current Version | Previous Version | Graphics & Text | Print | Product List | Glossary Off
Versions: 1 2 3 4 5 6 7 8 9 10 11 12 13 14 15 16 17 18 19 20 21 22 23 24 25 26 27 28 29 30 31 32 33 34 35 36 37 38 39 40 41 42 43 44 45 46 47 48 49 50

000
ASUS43 KGRB 022000
RWRGRB

NORTH-CENTRAL AND NORTHEAST WISCONSIN REGIONAL WEATHER ROUNDUP
NATIONAL WEATHER SERVICE GREEN BAY WI
300 PM CDT WED SEP 02 2015

WIZ005-009-010>012-018-019-022100-
NORTH CENTRAL WISCONSIN

CITY           SKY/WX    TMP DP  RH WIND       PRES   REMARKS
IRONWOOD       CLOUDY    70  66  88 SE13      29.93F
MANITOWISH WTR NOT AVBL
ARBOR VITAE    NOT AVBL
EAGLE RIVER    NOT AVBL
LAND O LAKES   NOT AVBL
RHINELANDER    LGT RAIN  69  67  93 NE7       30.01F FOG
PHILLIPS       CLOUDY    66  65  94 E5        29.98F
ANTIGO         NOT AVBL
TOMAHAWK       NOT AVBL
MERRILL        CLOUDY    70  69  96 E6        29.99F
$$

WIZ013-073-022100-
NORTHEAST WISCONSIN

CITY           SKY/WX    TMP DP  RH WIND       PRES   REMARKS
IRON MOUNTAIN  CLOUDY    75  67  76 N9        29.99F
MARINETTE      MOSUNNY   75  64  69 E12G21    29.94F
$$

WIZ017-030-035>037-045-022100-
CENTRAL WISCONSIN

CITY           SKY/WX    TMP DP  RH WIND       PRES   REMARKS
MEDFORD        NOT AVBL
WAUSAU         PTSUNNY   78  68  71 NE10      29.95F
MOSINEE        NOT AVBL
MARSHFIELD     MOSUNNY   84  66  54 SE7       29.95F
WISC RAPIDS    SUNNY     86  67  52 S10       29.96F
STEVENS POINT  NOT AVBL
WAUPACA        NOT AVBL
SHAWANO        NOT AVBL
CLINTONVILLE   PTSUNNY   88  66  48 S12       29.94F HX  90
WAUTOMA        NOT AVBL
$$

WIZ038-039-048-051-022100-
FOX VALLEY

CITY           SKY/WX    TMP DP  RH WIND       PRES   REMARKS
NWS GREEN BAY  PTSUNNY   85  72  65 SW8       29.94F HX  91
APPLETON       MOSUNNY   84  66  54 S13       29.95F
OSHKOSH        PTSUNNY   84  70  62 S12       29.95F
FOND DU LAC    PTSUNNY   85  69  58 SW9       29.97F
$$

WIZ022-050-052-022100-
EAST CENTRAL WISCONSIN

CITY           SKY/WX    TMP DP  RH WIND       PRES   REMARKS
EPHRAIM        FAIR      81  70  69 E7        29.95F
STURGEON BAY   MOSUNNY   77  70  78 E12       29.97F
MANITOWOC      NOT AVBL
SHEBOYGAN      MOSUNNY   87  70  56 SW13      29.97F HX  92
$$

LMZ563-521-522-541>543-022100-
LAKESHORE

STATION/POSITION TIME  TEMP    WIND        PRES    VSBY  WAVE
                       AIR SEA DIR/SP/G                  HT/PER
                 (UTC) (F)     (DEG/KT/KT) (MB)    (MI)  (FT/S)
SHEBOYGAN LKSHOR 1900   78     170/ 18/ 21 1014.9F
KEWAUNEE LKSHORE 1900   62     160/  7/  9 1013.8F
ALGOMA MARINA    1914             CALM       N/A
NORTHPORT PIER   1900   71     140/  3/ 16 1014.6F
N MID LAKE BUOY  1850   69 66   10/ 12/ 14 1014.9S         1
S GREEN BAY BUOY 1930   76 68  140/  6/  6 1015.4F
CHAMBERS ISLAND  1900   76     110/  5/  9 1014.6F
MENOMINEE LKSHOR 1900   70     340/  6/  8 1013.7F
$$



USA.gov is the U.S. government's official web portal to all federal, state and local government web resources and services.